{"data":{"norad_id":53778,"intl_designator":"2022-111F","name":"STARLINK-4709","alt_names":[],"object_type":"PAYLOAD","status":"ACTIVE","operator":null,"country":"US","launch_date":"2022-09-11","launch_site_code":"AFETR","launch_vehicle":null,"mission":null,"orbit_class":"UNKNOWN","rcs_meters":null,"size_class":null,"mass_kg":null,"dimensions":null,"purposes":["comms"],"wikipedia_slug":null,"has_3d_model":false,"image_url":null,"decayed_at":null,"tle_current":{"epoch":"2026-05-25T03:44:11.881248Z","epoch_age_seconds":57492,"freshness":"FRESH","line1":"1 53778U 22111F   26145.15569307  .00000582  00000+0  54668-4 0  9998","line2":"2 53778  53.2137 295.5789 0001396  84.0038 276.1113 15.08841066205175","mean_motion":15.08841066,"eccentricity":0.0001396,"inclination_deg":53.2137,"raan_deg":295.5789,"arg_perigee_deg":84.0038,"mean_anomaly_deg":276.1113,"bstar":5.4668e-5,"rev_number":20517,"period_min":95.437487250894,"perigee_km":538.77439498305,"apogee_km":540.70586627792,"semimajor_km":6917.8771306305,"source":"CELESTRAK","updated_at":"2026-05-25T13:38:17.541579Z"}}}